Wind_Speed
20 21 21 21 21 21 21 22 23 24 23 22 22 22 21 21 21 20 21 21 21 21 22 23 23 23 24 24 24 23 22 20 20 19 18 16 15 14 13 12 10 9 7
19 20 21 21 21 20 20 22 23 23 23 23 22 22 21 22 22 21 21 21 22 22 23 25 25 25 25 26 26 25 25 24 23 22 21 19 18 17 16 14 12 11 9
20 21 21 21 21 21 21 22 23 23 23 23 23 23 23 23 23 23 23 22 23 23 23 25 26 26 27 27 28 28 28 27 26 25 24 22 21 19 18 17 15 13 12
21 22 22 22 23 23 23 23 23 23 23 23 23 23 23 23 24 24 25 25 25 25 26 25 26 28 29 28 29 30 30 31 30 29 27 25 24 23 21 19 18 16 14
22 22 22 22 23 23 23 23 23 23 24 24 24 24 23 24 24 25 26 27 27 27 27 27 27 28 30 30 29 30 31 32 32 32 30 29 27 25 24 22 20 19 17
21 22 22 21 22 22 22 23 23 23 24 24 24 25 25 25 25 26 26 27 28 28 28 28 29 29 30 31 32 31 32 34 35 34 33 33 31 29 27 25 23 22 20
20 21 21 21 21 21 21 22 23 23 24 24 24 25 26 26 27 27 27 27 28 29 29 30 30 30 30 32 33 33 33 34 36 36 36 35 34 32 30 28 26 24 23
20 20 20 21 21 21 21 21 22 23 24 24 25 26 26 27 27 28 28 29 29 30 30 31 31 31 32 32 33 34 34 35 36 37 37 37 36 35 34 32 30 27 26
19 20 20 20 21 21 21 21 21 22 23 24 24 25 26 27 28 29 29 30 30 31 31 32 32 32 33 33 34 35 35 36 36 38 39 39 39 38 37 35 33 31 29
20 20 21 21 21 21 22 22 22 23 23 24 24 25 26 27 28 29 30 31 31 31 32 32 33 33 33 34 35 35 36 37 38 38 40 40 40 40 40 38 36 34 32
21 22 22 23 23 23 24 24 24 24 24 25 26 26 27 28 28 29 30 32 32 32 33 33 34 34 35 35 36 37 37 37 38 39 39 40 41 41 42 40 39 37 35
23 23 23 24 25 25 25 26 26 26 27 27 27 28 28 29 29 30 31 32 33 34 34 34 35 35 36 36 37 37 38 38 39 40 40 40 41 41 42 42 41 40 37
24 24 24 25 25 26 27 28 28 29 29 29 30 30 30 31 31 32 33 33 34 35 35 36 36 37 37 38 37 37 38 39 39 40 41 42 42 41 42 43 43 42 40
25 25 26 26 27 28 29 29 30 30 31 31 32 32 32 33 33 34 34 35 35 36 37 37 38 39 39 39 39 39 40 40 40 40 41 42 43 42 42 43 44 44 42
26 26 27 28 29 30 31 32 32 32 33 33 33 34 34 34 34 35 35 36 37 37 38 39 39 40 40 40 40 40 41 42 42 41 41 43 43 43 42 43 43 44 43
27 28 29 30 31 32 33 33 34 34 34 35 35 35 36 36 37 37 37 37 37 38 38 40 41 41 41 42 41 40 40 42 43 43 42 42 43 44 43 43 43 44 44
29 30 31 33 34 34 35 35 36 36 36 36 37 37 37 38 38 38 39 39 39 39 39 39 41 42 42 42 42 42 42 42 43 43 43 43 44 45 44 43 43 44 44
30 31 33 34 35 36 37 37 37 37 37 37 37 37 37 38 38 39 39 39 39 40 40 40 41 42 42 42 42 42 43 43 43 44 44 44 44 45 45 45 43 44 44
32 33 35 36 37 38 38 38 39 38 38 37 37 37 37 38 38 38 39 39 39 40 40 40 40 41 42 42 42 42 42 43 44 44 44 45 45 45 45 46 45 44 44
33 35 36 38 39 39 39 39 39 38 37 37 37 37 37 37 37 37 38 39 39 40 40 40 39 40 41 42 42 43 43 43 43 44 44 45 45 45 46 46 45 45 45
35 37 38 40 40 40 40 39 39 38 37 37 36 36 36 36 36 36 37 38 39 39 39 40 39 39 40 42 42 43 43 43 43 43 44 44 45 45 46 46 46 45 45
38 39 40 41 41 41 41 40 39 38 37 36 36 35 35 35 35 35 36 36 37 38 38 39 39 39 40 41 43 43 43 43 43 44 44 44 45 46 47 46 46 45 45
39 41 41 42 42 42 41 41 39 38 37 37 36 35 34 34 34 34 34 35 35 36 37 38 38 39 40 41 42 43 43 43 43 43 44 43 44 45 47 46 46 46 45
42 42 42 42 42 41 41 40 40 39 37 36 35 34 33 33 33 33 33 33 33 34 35 36 36 37 39 40 42 42 43 43 43 44 44 43 43 44 45 46 46 46 46
44 43 43 43 42 41 41 40 40 38 37 35 35 34 33 33 32 32 32 32 32 33 34 35 35 36 38 39 41 42 43 43 43 44 44 43 43 43 44 45 46 46 46
45 44 44 43 42 41 41 41 40 39 37 36 35 34 33 33 32 32 32 32 32 33 34 35 35 36 38 39 40 42 43 44 43 44 45 44 44 45 44 44 45 46 47
Wind_Direction
293 293 291 295 293 287 281 276 274 274 274 270 270 268 262 262 262 263 262 259 254 250 245 241 241 238 236 235 234 233 231 231 230 229 227 223 220 217 215 215 214 211 208
298 294 294 294 292 288 285 281 278 277 275 272 271 267 264 262 262 263 262 257 253 250 249 244 240 239 237 236 235 235 233 232 231 231 230 227 224 222 220 220 220 220 219
298 297 295 295 292 290 288 286 282 279 278 275 271 267 266 263 263 262 261 258 254 251 252 247 242 240 238 237 236 236 235 232 232 231 231 230 228 227 225 224 224 224 224
298 296 294 294 291 290 288 286 284 281 278 276 272 269 267 265 264 262 261 260 256 254 252 249 245 242 240 239 238 237 236 234 232 232 231 231 230 229 228 228 227 227 226
301 299 297 295 292 291 289 286 283 280 278 276 273 270 268 267 265 263 261 260 257 255 252 251 248 245 242 239 239 238 237 235 233 232 232 231 231 230 230 230 230 229 228
303 302 301 297 294 292 290 287 285 282 280 277 274 273 270 268 266 264 262 261 258 255 252 251 249 247 244 241 239 240 239 236 234 233 232 232 231 231 231 231 232 231 230
308 306 303 301 298 296 293 290 287 284 282 279 276 274 272 270 267 265 264 263 259 257 255 253 251 248 246 243 241 240 240 237 235 234 233 232 231 231 231 232 232 232 231
311 308 306 304 302 300 298 295 291 287 284 282 279 276 274 272 269 267 266 264 261 257 255 253 252 250 248 246 243 241 239 238 236 234 233 233 231 232 232 232 232 233 233
316 314 311 308 306 304 301 299 297 294 290 286 283 280 277 275 272 269 266 264 262 259 256 254 252 251 249 247 245 242 241 239 238 236 234 233 232 233 232 232 233 233 233
318 316 314 311 308 306 304 302 300 297 294 291 287 284 281 277 274 272 268 265 263 261 259 256 253 252 249 248 246 244 243 240 240 239 236 234 233 232 232 232 233 233 233
318 315 312 311 309 307 305 303 301 299 296 293 289 286 283 280 277 274 271 268 264 262 259 257 255 254 251 249 247 245 243 242 241 239 237 235 233 232 232 232 233 234 234
318 314 310 309 308 307 306 304 302 299 297 294 291 288 284 281 279 276 273 270 267 264 261 258 256 254 252 250 247 246 244 243 241 238 237 235 234 233 233 232 232 233 234
319 316 313 311 309 308 306 305 303 300 298 295 292 289 286 283 280 277 274 271 268 265 263 260 257 254 253 251 248 246 245 244 242 240 237 235 234 234 233 232 232 233 233
319 318 317 315 313 310 308 306 304 302 299 296 292 289 287 284 281 278 274 272 269 266 264 261 259 256 254 252 249 246 245 244 242 241 238 236 234 235 233 232 232 232 232
321 320 318 316 314 312 309 307 304 302 299 296 293 290 287 284 282 278 275 272 269 266 264 262 259 257 255 253 250 248 245 243 242 240 239 237 234 233 233 232 231 232 232
321 320 320 318 316 313 310 308 305 302 299 296 294 290 287 284 281 278 275 273 270 267 264 262 259 257 256 253 251 249 246 244 243 241 240 238 235 233 233 233 233 232 232
320 320 319 318 316 314 312 309 306 303 301 298 294 291 287 283 281 278 275 272 269 267 264 261 259 257 256 254 252 249 246 245 242 240 239 238 236 233 232 233 232 231 231
320 319 319 318 317 315 313 311 308 305 302 299 296 292 288 285 282 279 275 272 269 266 264 261 258 256 255 253 251 249 246 245 242 240 238 236 236 235 232 232 231 230 230
321 320 320 319 318 317 315 314 311 307 304 300 297 293 290 286 283 279 276 272 269 266 264 260 257 255 253 251 250 248 246 245 242 240 237 236 235 234 232 231 231 231 230
323 322 322 322 320 319 318 316 313 309 306 302 299 295 291 288 284 280 276 273 270 267 264 260 257 254 252 250 248 246 244 243 241 240 238 236 235 234 232 231 230 230 229
323 323 323 323 323 322 321 318 315 311 308 305 301 297 293 289 286 282 278 274 271 267 264 260 257 254 251 249 247 244 243 241 239 239 238 236 235 234 233 230 228 228 228
322 323 323 323 323 323 322 319 316 313 310 307 303 299 296 292 288 283 279 275 271 267 263 260 257 254 251 248 246 244 242 240 239 238 237 235 234 233 232 230 227 226 226
322 323 324 323 323 322 321 320 318 315 312 308 305 301 297 292 288 285 281 276 272 268 263 260 257 254 251 248 245 243 241 239 237 236 236 235 234 232 230 229 227 225 225
323 323 323 323 323 321 320 319 318 316 313 310 306 302 298 295 291 287 283 278 273 269 264 260 256 254 251 248 245 242 240 239 237 235 234 234 232 231 231 228 225 224 223
322 322 322 324 323 322 321 319 318 316 314 311 307 302 299 296 293 289 285 280 275 270 266 261 257 254 251 248 245 242 239 238 237 235 234 232 230 229 229 228 226 223 221
322 321 321 323 323 322 321 320 318 316 314 311 308 304 300 297 293 290 287 282 277 272 267 263 260 257 253 249 246 242 239 236 235 233 232 231 229 228 228 227 225 222 220
Height
5872 5871 5870 5869 5868 5868 5868 5868 5868 5868 5868 5869 5870 5870 5871 5872 5873 5873 5873 5873 5874 5877 5879 5881 5883 5886 5888 5891 5894 5896 5899 5901 5904 5906 5908 5910 5912 5914 5916 5918 5920 5921 5923
5868 5867 5866 5865 5864 5864 5863 5863 5863 5863 5863 5864 5864 5865 5865 5867 5867 5868 5868 5869 5871 5872 5874 5876 5878 5881 5883 5886 5889 5892 5895 5898 5900 5903 5906 5908 5910 5912 5914 5916 5918 5920 5922
5864 5863 5862 5861 5860 5859 5859 5858 5858 5858 5858 5858 5859 5859 5860 5861 5862 5862 5863 5864 5866 5867 5869 5871 5873 5876 5878 5881 5884 5887 5890 5893 5896 5899 5902 5905 5907 5910 5912 5914 5916 5918 5920
5860 5858 5857 5857 5855 5854 5854 5853 5852 5853 5853 5853 5853 5854 5854 5855 5856 5857 5857 5859 5860 5862 5863 5865 5867 5870 5872 5875 5878 5882 5885 5888 5891 5894 5898 5901 5904 5906 5909 5911 5914 5916 5918
5856 5854 5853 5852 5850 5849 5848 5848 5847 5847 5847 5847 5847 5848 5849 5849 5850 5850 5851 5852 5854 5856 5858 5859 5861 5863 5866 5869 5872 5875 5878 5882 5885 5889 5892 5896 5899 5902 5905 5908 5911 5913 5915
5851 5849 5848 5847 5845 5844 5843 5842 5842 5841 5841 5841 5841 5841 5842 5843 5843 5844 5845 5846 5848 5849 5851 5853 5855 5857 5860 5862 5866 5869 5872 5875 5879 5883 5887 5891 5894 5897 5901 5904 5907 5910 5912
5847 5845 5843 5842 5840 5839 5838 5837 5836 5836 5835 5835 5835 5835 5835 5836 5836 5837 5838 5839 5841 5842 5844 5846 5848 5850 5853 5855 5858 5862 5865 5869 5872 5876 5880 5884 5888 5892 5895 5899 5903 5906 5909
5843 5841 5839 5837 5836 5834 5833 5832 5831 5830 5829 5829 5829 5829 5829 5830 5829 5830 5831 5832 5833 5835 5837 5838 5840 5843 5846 5848 5852 5855 5858 5861 5865 5869 5873 5877 5882 5886 5890 5893 5897 5901 5904
5839 5837 5835 5833 5832 5830 5829 5827 5826 5825 5823 5823 5822 5822 5822 5822 5822 5823 5823 5824 5825 5827 5829 5830 5833 5835 5838 5841 5844 5847 5850 5854 5857 5861 5865 5870 5874 5879 5883 5887 5891 5895 5899
5836 5834 5832 5830 5828 5826 5824 5823 5821 5819 5818 5817 5816 5815 5815 5814 5814 5815 5815 5816 5817 5819 5820 5822 5825 5827 5830 5832 5836 5839 5842 5846 5849 5853 5857 5862 5866 5871 5876 5880 5884 5889 5893
5832 5830 5828 5825 5823 5821 5819 5817 5815 5814 5812 5811 5809 5808 5808 5807 5806 5807 5807 5808 5809 5810 5812 5814 5816 5818 5821 5824 5827 5830 5834 5837 5841 5844 5848 5853 5858 5863 5868 5873 5877 5882 5886
5828 5826 5824 5821 5819 5816 5814 5812 5809 5807 5806 5804 5802 5801 5800 5800 5799 5799 5799 5799 5800 5801 5803 5805 5807 5809 5812 5815 5818 5821 5825 5828 5832 5836 5840 5844 5849 5854 5859 5865 5869 5874 5879
5824 5822 5819 5816 5813 5811 5808 5805 5803 5801 5798 5796 5795 5793 5792 5791 5790 5790 5790 5790 5790 5791 5793 5795 5797 5799 5802 5805 5808 5812 5815 5819 5823 5827 5831 5835 5840 5845 5851 5856 5861 5866 5871
5819 5816 5813 5811 5808 5805 5802 5799 5796 5793 5791 5788 5786 5784 5783 5782 5781 5780 5780 5780 5781 5782 5782 5784 5786 5789 5792 5795 5799 5802 5805 5809 5813 5818 5822 5826 5831 5836 5842 5847 5852 5858 5863
5815 5811 5808 5805 5802 5798 5795 5791 5788 5785 5782 5780 5777 5775 5773 5772 5771 5770 5770 5770 5771 5771 5772 5773 5775 5778 5780 5784 5788 5791 5795 5799 5803 5808 5812 5817 5822 5827 5832 5838 5843 5849 5854
5810 5806 5802 5799 5795 5791 5787 5783 5780 5777 5773 5770 5768 5766 5763 5762 5760 5759 5759 5758 5759 5760 5761 5762 5764 5766 5769 5773 5776 5780 5784 5788 5792 5797 5802 5807 5812 5817 5823 5829 5834 5839 5845
5804 5800 5796 5792 5788 5783 5779 5775 5771 5767 5763 5760 5757 5755 5752 5750 5749 5748 5747 5747 5747 5748 5749 5751 5752 5754 5757 5761 5765 5769 5773 5777 5782 5786 5792 5797 5802 5807 5813 5819 5824 5830 5836
5799 5794 5789 5785 5780 5775 5770 5766 5761 5757 5753 5750 5746 5743 5741 5739 5737 5735 5735 5734 5735 5735 5737 5739 5740 5742 5745 5749 5753 5757 5761 5766 5771 5776 5781 5786 5791 5797 5803 5809 5815 5821 5827
5792 5787 5782 5777 5771 5766 5761 5756 5751 5747 5742 5739 5735 5732 5729 5727 5725 5723 5722 5722 5722 5723 5724 5726 5728 5730 5733 5737 5741 5745 5749 5754 5759 5765 5770 5775 5781 5786 5792 5799 5805 5811 5817
5785 5780 5774 5768 5763 5757 5752 5746 5741 5736 5732 5728 5724 5720 5717 5715 5713 5711 5710 5709 5709 5710 5711 5713 5716 5719 5722 5725 5729 5733 5738 5743 5748 5753 5759 5764 5770 5775 5782 5788 5795 5801 5807
5778 5772 5766 5760 5754 5748 5742 5737 5732 5726 5721 5717 5713 5709 5706 5704 5701 5699 5698 5697 5697 5697 5699 5700 5703 5706 5709 5712 5717 5721 5726 5731 5737 5742 5748 5754 5759 5765 5771 5777 5784 5791 5797
5770 5764 5758 5751 5745 5739 5733 5727 5722 5717 5712 5707 5703 5699 5695 5693 5690 5688 5686 5685 5685 5685 5686 5688 5691 5694 5697 5700 5704 5709 5714 5720 5726 5732 5737 5742 5748 5754 5761 5767 5774 5781 5787
5762 5756 5749 5743 5736 5730 5724 5718 5712 5707 5702 5697 5692 5688 5685 5682 5679 5677 5675 5673 5673 5673 5674 5676 5679 5682 5684 5688 5692 5697 5702 5707 5714 5719 5725 5732 5737 5743 5750 5757 5763 5770 5777
5754 5748 5741 5734 5727 5721 5715 5709 5703 5697 5692 5687 5682 5678 5675 5671 5668 5666 5664 5663 5662 5662 5662 5664 5667 5669 5672 5675 5679 5685 5689 5696 5702 5708 5714 5720 5726 5733 5739 5746 5753 5759 5767
5745 5739 5732 5725 5718 5712 5706 5700 5694 5688 5683 5678 5673 5668 5665 5661 5658 5655 5654 5652 5651 5651 5651 5652 5655 5657 5660 5663 5667 5672 5678 5684 5691 5697 5703 5709 5715 5722 5728 5735 5742 5749 5756
5736 5730 5723 5716 5709 5703 5697 5690 5684 5679 5674 5669 5664 5659 5655 5651 5648 5645 5643 5642 5641 5640 5640 5641 5642 5645 5647 5651 5655 5660 5666 5672 5678 5685 5691 5698 5704 5711 5718 5725 5732 5739 5746